| time (UTC) | temp C | wind direction | speed KPH | gust KPH | rain 1hr cm | rain 24hr cm | rain mn cm | humidity % | barometer mb |
| 20260906005021 | 22 | 355 | 0.0 | 1.6 | 0.30 | 1.35 | 1.35 | 94 | 1011.5 |
| 20260906004515 | 22 | 55 | 0.0 | 1.6 | 0.30 | 1.32 | 1.32 | 93 | 1011.5 |
| 20260906004010 | 22 | 55 | 0.0 | 1.6 | 0.33 | 1.30 | 1.30 | 93 | 1011.5 |
| 20260906003504 | 22 | 55 | 0.0 | 1.6 | 0.30 | 1.27 | 1.27 | 93 | 1011.4 |
| 20260906002957 | 22 | 69 | 0.0 | 3.2 | 0.33 | 1.24 | 1.24 | 93 | 1011.5 |
| 20260906002759 | 22 | 69 | 0.0 | 3.2 | 0.33 | 1.22 | 1.22 | 93 | 1011.5 |
| 20260906002724 | 23 | 157 | 0.0 | 0.0 | 0.33 | 1.19 | 1.19 | 93 | 1011.4 |
| 20260906001440 | 23 | 157 | 0.0 | 0.0 | 0.33 | 1.17 | 1.17 | 93 | 1011.4 |
| 20260906000933 | 23 | 157 | 0.0 | 0.0 | 0.33 | 1.14 | 1.14 | 93 | 1011.3 |
| 20260906000433 | 23 | 157 | 0.0 | 0.0 | 0.36 | 1.12 | 1.12 | 93 | 1011.3 |
| 20260905235922 | 23 | 157 | 0.0 | 0.0 | 0.36 | 1.09 | 1.09 | 93 | 1011.3 |
| 20260905235634 | 23 | 157 | 0.0 | 0.0 | 0.33 | 1.04 | 1.07 | 93 | 1011.3 |
| 20260905234908 | 23 | 157 | 0.0 | 0.0 | 0.33 | 1.02 | 1.04 | 93 | 1011.3 |
| 20260905234404 | 23 | 157 | 0.0 | 0.0 | 0.38 | 1.02 | 1.02 | 93 | 1011.3 |
| 20260905233858 | 23 | 157 | 0.0 | 0.0 | 0.36 | 0.97 | 0.97 | 93 | 1011.3 |
| 20260905233351 | 23 | 157 | 0.0 | 0.0 | 0.36 | 0.94 | 0.94 | 93 | 1011.3 |
| 20260905232845 | 23 | 157 | 0.0 | 0.0 | 0.38 | 0.91 | 0.91 | 93 | 1011.3 |
| 20260905232340 | 23 | 157 | 0.0 | 0.0 | 0.38 | 0.89 | 0.89 | 93 | 1011.3 |
| 20260905231834 | 23 | 157 | 0.0 | 0.0 | 0.41 | 0.86 | 0.86 | 92 | 1011.3 |
| 20260905231327 | 23 | 157 | 0.0 | 0.0 | 0.38 | 0.81 | 0.84 | 92 | 1011.2 |
| 20260905230821 | 23 | 157 | 0.0 | 1.6 | 0.41 | 0.79 | 0.79 | 92 | 1011.3 |
| 20260905230316 | 23 | 157 | 0.0 | 1.6 | 0.41 | 0.76 | 0.76 | 92 | 1011.3 |
| 20260905225809 | 23 | 157 | 0.0 | 0.0 | 0.43 | 0.74 | 0.74 | 91 | 1011.1 |
| 20260905225307 | 23 | 157 | 0.0 | 1.6 | 0.41 | 0.69 | 0.71 | 91 | 1011.1 |
| 20260905224753 | 23 | 157 | 0.0 | 1.6 | 0.41 | 0.66 | 0.66 | 91 | 1011.2 |
| 20260905224507 | 23 | 157 | 0.0 | 0.0 | 0.38 | 0.64 | 0.64 | 90 | 1011.2 |
| 20260905223741 | 23 | 157 | 0.0 | 0.0 | 0.36 | 0.61 | 0.61 | 90 | 1011.3 |
| 20260905223235 | 23 | 157 | 0.0 | 0.0 | 0.30 | 0.56 | 0.56 | 89 | 1011.2 |
| 20260905222729 | 23 | 157 | 0.0 | 0.0 | 0.28 | 0.53 | 0.53 | 88 | 1011.2 |
| 20260905222223 | 24 | 157 | 0.0 | 0.0 | 0.25 | 0.51 | 0.51 | 88 | 1011.2 |
| 20260905221718 | 24 | 157 | 0.0 | 0.0 | 0.20 | 0.46 | 0.46 | 87 | 1011.2 |
| 20260905221213 | 24 | 157 | 0.0 | 1.6 | 0.15 | 0.41 | 0.43 | 86 | 1011.0 |
| 20260905220706 | 24 | 157 | 0.0 | 1.6 | 0.13 | 0.38 | 0.38 | 86 | 1011.1 |
| 20260905220159 | 25 | 157 | 0.0 | 0.0 | 0.08 | 0.33 | 0.36 | 85 | 1011.3 |
| 20260905215653 | 25 | 215 | 1.6 | 6.4 | 0.05 | 0.30 | 0.30 | 84 | 1011.2 |
| 20260905215147 | 25 | 126 | 1.6 | 6.4 | 0.03 | 0.28 | 0.28 | 85 | 1011.3 |
| 20260905214642 | 25 | 159 | 0.0 | 3.2 | 0.00 | 0.25 | 0.25 | 84 | 1010.9 |
| 20260905214355 | 25 | 259 | 0.0 | 3.2 | 0.00 | 0.25 | 0.25 | 84 | 1010.9 |
| 20260905214116 | 26 | 289 | 1.6 | 11.3 | 0.00 | 0.25 | 0.25 | 84 | 1010.9 |
| 20260905213122 | 26 | 263 | 0.0 | 11.3 | 0.00 | 0.25 | 0.25 | 84 | 1010.8 |
| 20260905212618 | 26 | 64 | 0.0 | 0.0 | 0.00 | 0.25 | 0.25 | 84 | 1010.6 |
| 20260905212111 | 25 | 64 | 0.0 | 0.0 | 0.00 | 0.25 | 0.25 | 84 | 1010.5 |
| 20260905211605 | 25 | 64 | 0.0 | 0.0 | 0.00 | 0.25 | 0.25 | 84 | 1010.5 |
| 20260905211058 | 25 | 64 | 0.0 | 0.0 | 0.00 | 0.25 | 0.25 | 86 | 1010.5 |
| 20260905210553 | 25 | 64 | 0.0 | 0.0 | 0.00 | 0.25 | 0.25 | 85 | 1010.4 |
| 20260905210048 | 26 | 64 | 0.0 | 0.0 | 0.00 | 0.25 | 0.25 | 83 | 1010.4 |
| 20260905205541 | 26 | 64 | 0.0 | 0.0 | 0.00 | 0.25 | 0.25 | 83 | 1010.4 |
| 20260905205035 | 26 | 64 | 0.0 | 0.0 | 0.00 | 0.28 | 0.25 | 81 | 1010.4 |
| 20260905204529 | 26 | 64 | 0.0 | 0.0 | 0.00 | 0.33 | 0.25 | 82 | 1010.4 |
| 20260905204023 | 26 | 64 | 0.0 | 0.0 | 0.00 | 0.41 | 0.25 | 82 | 1010.4 |
| 20260905203745 | 26 | 64 | 0.0 | 0.0 | 0.00 | 0.48 | 0.25 | 84 | 1010.5 |
| 20260905203453 | 26 | 64 | 0.0 | 0.0 | 0.00 | 0.58 | 0.25 | 83 | 1010.5 |
| 20260905202947 | 26 | 64 | 0.0 | 0.0 | 0.00 | 0.74 | 0.25 | 83 | 1010.5 |
| 20260905201959 | 26 | 64 | 0.0 | 0.0 | 0.00 | 0.89 | 0.25 | 82 | 1010.5 |
| 20260905201459 | 26 | 64 | 0.0 | 0.0 | 0.00 | 0.91 | 0.25 | 82 | 1010.5 |
| 20260905200959 | 26 | 64 | 0.0 | 1.6 | 0.00 | 0.91 | 0.25 | 76 | 1010.4 |
| 20260905200459 | 26 | 64 | 0.0 | 1.6 | 0.00 | 0.91 | 0.25 | 75 | 1010.5 |
| 20260905200450 | 26 | 64 | 0.0 | 3.2 | 0.00 | 0.91 | 0.25 | 77 | 1010.5 |
| 20260905195459 | 26 | 12 | 0.0 | 4.8 | 0.00 | 0.91 | 0.25 | 76 | 1010.4 |
| 20260905194955 | 26 | 5 | 0.0 | 4.8 | 0.00 | 0.91 | 0.25 | 76 | 1010.5 |
| 20260905194453 | 27 | 67 | 1.6 | 4.8 | 0.00 | 0.91 | 0.25 | 74 | 1010.6 |
| 20260905193951 | 27 | 77 | 1.6 | 4.8 | 0.00 | 0.91 | 0.25 | 76 | 1010.7 |
| 20260905193451 | 27 | 291 | 1.6 | 4.8 | 0.00 | 0.91 | 0.25 | 77 | 1010.8 |
| 20260905193212 | 27 | 273 | 1.6 | 6.4 | 0.00 | 0.91 | 0.25 | 74 | 1010.8 |
| 20260905192449 | 26 | 104 | 1.6 | 6.4 | 0.00 | 0.91 | 0.25 | 77 | 1010.8 |
| 20260905191949 | 26 | 82 | 0.0 | 4.8 | 0.00 | 0.91 | 0.25 | 78 | 1010.8 |
| 20260905191448 | 26 | 321 | 0.0 | 6.4 | 0.00 | 0.91 | 0.25 | 76 | 1010.8 |
| 20260905190951 | 26 | 33 | 1.6 | 6.4 | 0.00 | 0.91 | 0.25 | 80 | 1010.9 |
| 20260905190945 | 26 | 80 | 1.6 | 4.8 | 0.00 | 0.91 | 0.25 | 81 | 1010.9 |
| 20260905190431 | 27 | 55 | 1.6 | 4.8 | 0.00 | 0.91 | 0.25 | 79 | 1011.0 |
| 20260905185447 | 26 | 0 | 0.0 | 4.8 | 0.00 | 0.91 | 0.25 | 78 | 1011.1 |
| 20260905184947 | 27 | 318 | 0.0 | 4.8 | 0.00 | 0.91 | 0.25 | 80 | 1011.1 |
| 20260905184439 | 26 | 62 | 0.0 | 4.8 | 0.00 | 0.91 | 0.25 | 81 | 1011.0 |
| 20260905183940 | 27 | 73 | 0.0 | 3.2 | 0.00 | 0.91 | 0.25 | 82 | 1011.1 |
| 20260905183438 | 26 | 58 | 0.0 | 1.6 | 0.00 | 0.91 | 0.25 | 88 | 1011.1 |
| 20260905183211 | 25 | 195 | 0.0 | 3.2 | 0.00 | 0.91 | 0.25 | 90 | 1011.1 |
| 20260905182438 | 25 | 195 | 0.0 | 3.2 | 0.03 | 0.91 | 0.25 | 88 | 1011.1 |
| 20260905181936 | 25 | 96 | 0.0 | 1.6 | 0.03 | 0.91 | 0.25 | 90 | 1011.0 |
| 20260905181437 | 25 | 96 | 0.0 | 1.6 | 0.05 | 0.91 | 0.25 | 90 | 1011.0 |
| 20260905181432 | 25 | 78 | 0.0 | 1.6 | 0.05 | 0.91 | 0.25 | 92 | 1011.0 |
| 20260905180659 | 25 | 111 | 0.0 | 0.0 | 0.08 | 0.91 | 0.25 | 93 | 1011.0 |
| 20260905175936 | 24 | 119 | 0.0 | 0.0 | 0.10 | 0.91 | 0.25 | 94 | 1011.1 |
| 20260905175440 | 24 | 111 | 0.0 | 0.0 | 0.13 | 0.91 | 0.25 | 94 | 1011.1 |
| 20260905174934 | 24 | 296 | 0.0 | 0.0 | 0.13 | 0.91 | 0.25 | 94 | 1011.1 |
| 20260905174435 | 24 | 212 | 0.0 | 1.6 | 0.15 | 0.91 | 0.25 | 95 | 1011.0 |
| 20260905173933 | 24 | 140 | 0.0 | 3.2 | 0.18 | 0.91 | 0.25 | 96 | 1011.2 |
| 20260905173701 | 24 | 140 | 0.0 | 3.2 | 0.20 | 0.91 | 0.25 | 96 | 1011.1 |
| 20260905172932 | 23 | 140 | 0.0 | 1.6 | 0.20 | 0.91 | 0.25 | 95 | 1011.1 |
| 20260905172431 | 23 | 140 | 0.0 | 4.8 | 0.18 | 0.89 | 0.23 | 96 | 1011.2 |
| 20260905171933 | 23 | 18 | 0.0 | 4.8 | 0.20 | 0.89 | 0.23 | 96 | 1011.4 |
| 20260905171700 | 23 | 186 | 0.0 | 1.6 | 0.18 | 0.86 | 0.20 | 95 | 1011.4 |
| 20260905170933 | 23 | 209 | 0.0 | 1.6 | 0.18 | 0.86 | 0.20 | 96 | 1011.5 |
| 20260905170427 | 23 | 209 | 0.0 | 1.6 | 0.15 | 0.84 | 0.18 | 94 | 1011.5 |
| 20260905165929 | 23 | 209 | 0.0 | 1.6 | 0.13 | 0.81 | 0.15 | 93 | 1011.7 |
| 20260905165429 | 24 | 209 | 0.0 | 1.6 | 0.10 | 0.79 | 0.15 | 91 | 1012.0 |
| 20260905165150 | 24 | 209 | 0.0 | 1.6 | 0.10 | 0.79 | 0.13 | 90 | 1012.1 |
| 20260905164648 | 24 | 209 | 0.0 | 1.6 | 0.08 | 0.76 | 0.10 | 90 | 1012.4 |
| 20260905163928 | 25 | 209 | 0.0 | 1.6 | 0.05 | 0.74 | 0.08 | 89 | 1012.7 |
| 20260905163427 | 25 | 71 | 0.0 | 0.0 | 0.03 | 0.71 | 0.08 | 89 | 1012.9 |
| 20260905162926 | 25 | 71 | 0.0 | 1.6 | 0.03 | 0.71 | 0.05 | 89 | 1013.0 |
| 20260905162858 | 25 | 71 | 0.0 | 1.6 | 0.03 | 0.71 | 0.05 | 88 | 1012.9 |
| 20260905161924 | 25 | 71 | 0.0 | 0.0 | 0.00 | 0.69 | 0.03 | 88 | 1012.9 |
| 20260905161422 | 25 | 71 | 0.0 | 0.0 | 0.00 | 0.69 | 0.03 | 88 | 1012.9 |
| 20260905161151 | 25 | 71 | 0.0 | 0.0 | 0.00 | 0.69 | 0.03 | 88 | 1013.0 |
| 20260905160416 | 25 | 71 | 0.0 | 0.0 | 0.00 | 0.69 | 0.03 | 87 | 1013.0 |
| 20260905155910 | 25 | 71 | 0.0 | 0.0 | 0.00 | 0.69 | 0.03 | 87 | 1013.1 |
| 20260905155404 | 25 | 71 | 0.0 | 1.6 | 0.00 | 0.69 | 0.03 | 87 | 1013.0 |
| 20260905154900 | 25 | 71 | 0.0 | 1.6 | 0.00 | 0.69 | 0.03 | 87 | 1013.0 |
| 20260905154400 | 25 | 73 | 0.0 | 1.6 | 0.00 | 0.69 | 0.03 | 86 | 1012.9 |
| 20260905154344 | 25 | 73 | 0.0 | 1.6 | 0.00 | 0.69 | 0.03 | 86 | 1012.8 |
| 20260905153401 | 25 | 73 | 0.0 | 3.2 | 0.00 | 0.69 | 0.03 | 86 | 1012.6 |
| 20260905152900 | 25 | 107 | 0.0 | 3.2 | 0.00 | 0.69 | 0.03 | 86 | 1012.6 |
| 20260905152359 | 25 | 75 | 0.0 | 1.6 | 0.00 | 0.69 | 0.03 | 86 | 1012.5 |
| 20260905151857 | 25 | 107 | 0.0 | 3.2 | 0.00 | 0.69 | 0.03 | 86 | 1012.5 |
| 20260905151623 | 25 | 59 | 0.0 | 3.2 | 0.00 | 0.69 | 0.03 | 86 | 1012.7 |
| 20260905151123 | 25 | 32 | 0.0 | 3.2 | 0.00 | 0.69 | 0.03 | 85 | 1012.8 |
| 20260905150357 | 25 | 65 | 0.0 | 1.6 | 0.00 | 0.69 | 0.03 | 86 | 1012.9 |
| 20260905145857 | 25 | 96 | 0.0 | 1.6 | 0.00 | 0.69 | 0.03 | 86 | 1012.8 |
| 20260905145358 | 25 | 125 | 0.0 | 4.8 | 0.00 | 0.69 | 0.03 | 86 | 1012.8 |
| 20260905144859 | 25 | 125 | 0.0 | 4.8 | 0.00 | 0.69 | 0.03 | 86 | 1012.8 |
| 20260905144357 | 25 | 67 | 0.0 | 4.8 | 0.00 | 0.69 | 0.03 | 85 | 1012.9 |
| 20260905143900 | 25 | 31 | 0.0 | 4.8 | 0.00 | 0.69 | 0.03 | 85 | 1012.9 |
| 20260905143355 | 25 | 78 | 1.6 | 4.8 | 0.00 | 0.69 | 0.03 | 85 | 1012.9 |
| 20260905142855 | 25 | 58 | 0.0 | 4.8 | 0.00 | 0.69 | 0.03 | 86 | 1012.8 |
| 20260905142354 | 25 | 31 | 0.0 | 4.8 | 0.00 | 0.69 | 0.03 | 86 | 1012.8 |
| 20260905141849 | 25 | 42 | 0.0 | 4.8 | 0.00 | 0.69 | 0.03 | 85 | 1012.8 |
| 20260905141342 | 25 | 29 | 0.0 | 4.8 | 0.00 | 0.69 | 0.03 | 86 | 1012.8 |
| 20260905140836 | 25 | 123 | 0.0 | 3.2 | 0.00 | 0.69 | 0.03 | 87 | 1012.8 |
| 20260905140331 | 25 | 123 | 0.0 | 3.2 | 0.00 | 0.69 | 0.03 | 86 | 1012.7 |
| 20260905135824 | 25 | 65 | 0.0 | 3.2 | 0.00 | 0.69 | 0.03 | 87 | 1012.5 |
| 20260905135318 | 24 | 65 | 0.0 | 3.2 | 0.00 | 0.69 | 0.03 | 88 | 1012.4 |
| 20260905134812 | 24 | 87 | 0.0 | 3.2 | 0.00 | 0.69 | 0.03 | 89 | 1012.2 |
| 20260905134306 | 24 | 31 | 0.0 | 3.2 | 0.00 | 0.69 | 0.03 | 89 | 1012.1 |
| 20260905133800 | 24 | 90 | 1.6 | 4.8 | 0.00 | 0.69 | 0.03 | 89 | 1012.2 |
| 20260905133254 | 24 | 76 | 0.0 | 4.8 | 0.00 | 0.69 | 0.03 | 90 | 1012.1 |
| 20260905132748 | 23 | 89 | 1.6 | 4.8 | 0.00 | 0.69 | 0.03 | 91 | 1012.0 |
| 20260905132242 | 23 | 138 | 1.6 | 6.4 | 0.00 | 0.69 | 0.03 | 93 | 1012.0 |
| 20260905131736 | 23 | 97 | 1.6 | 6.4 | 0.00 | 0.69 | 0.03 | 94 | 1012.0 |
| 20260905131231 | 22 | 111 | 0.0 | 1.6 | 0.00 | 0.69 | 0.03 | 96 | 1011.9 |
| 20260905130724 | 22 | 86 | 0.0 | 1.6 | 0.00 | 0.69 | 0.03 | 97 | 1012.1 |
| 20260905130218 | 22 | 86 | 0.0 | 1.6 | 0.00 | 0.69 | 0.03 | 96 | 1012.1 |
| 20260905125712 | 22 | 57 | 0.0 | 1.6 | 0.00 | 0.69 | 0.03 | 96 | 1012.0 |
| 20260905125206 | 21 | 67 | 0.0 | 6.4 | 0.00 | 0.69 | 0.03 | 96 | 1012.0 |
| 20260905124700 | 21 | 67 | 0.0 | 6.4 | 0.00 | 0.69 | 0.03 | 96 | 1012.0 |
| 20260905124154 | 21 | 346 | 0.0 | 1.6 | 0.00 | 0.69 | 0.03 | 96 | 1012.0 |
| 20260905123648 | 21 | 26 | 0.0 | 0.0 | 0.00 | 0.69 | 0.03 | 96 | 1012.0 |
| 20260905123142 | 21 | 26 | 0.0 | 0.0 | 0.00 | 0.69 | 0.03 | 96 | 1012.1 |
| 20260905122635 | 21 | 26 | 0.0 | 1.6 | 0.00 | 0.69 | 0.03 | 96 | 1012.0 |
| 20260905122131 | 21 | 26 | 0.0 | 1.6 | 0.00 | 0.69 | 0.03 | 96 | 1012.0 |
| 20260905121624 | 21 | 26 | 0.0 | 1.6 | 0.00 | 0.69 | 0.03 | 96 | 1011.8 |
| 20260905121118 | 21 | 26 | 0.0 | 1.6 | 0.00 | 0.69 | 0.03 | 96 | 1011.9 |
| 20260905120613 | 21 | 26 | 0.0 | 1.6 | 0.00 | 0.69 | 0.03 | 96 | 1011.9 |
| 20260905120331 | 21 | 29 | 0.0 | 1.6 | 0.00 | 0.69 | 0.03 | 96 | 1011.9 |
| 20260905115600 | 20 | 19 | 0.0 | 0.0 | 0.00 | 0.69 | 0.03 | 96 | 1011.8 |
| 20260905115054 | 20 | 19 | 0.0 | 0.0 | 0.00 | 0.69 | 0.03 | 96 | 1011.9 |
| 20260905114548 | 20 | 19 | 0.0 | 0.0 | 0.00 | 0.69 | 0.03 | 96 | 1011.8 |
| 20260905114041 | 20 | 20 | 0.0 | 0.0 | 0.00 | 0.69 | 0.03 | 96 | 1011.7 |
| 20260905113536 | 20 | 20 | 0.0 | 0.0 | 0.00 | 0.69 | 0.03 | 96 | 1011.6 |
| 20260905113248 | 20 | 20 | 0.0 | 1.6 | 0.00 | 0.69 | 0.03 | 96 | 1011.6 |
| 20260905112524 | 20 | 19 | 0.0 | 1.6 | 0.00 | 0.69 | 0.03 | 95 | 1011.6 |
| 20260905112017 | 20 | 19 | 0.0 | 3.2 | 0.00 | 0.69 | 0.03 | 95 | 1011.6 |
| 20260905111512 | 20 | 19 | 0.0 | 3.2 | 0.00 | 0.69 | 0.03 | 95 | 1011.6 |
| 20260905111226 | 20 | 19 | 0.0 | 3.2 | 0.00 | 0.69 | 0.03 | 95 | 1011.7 |
| 20260905110500 | 20 | 19 | 0.0 | 3.2 | 0.00 | 0.69 | 0.03 | 95 | 1011.7 |
| 20260905105955 | 20 | 19 | 0.0 | 3.2 | 0.00 | 0.69 | 0.03 | 95 | 1011.6 |
| 20260905105448 | 20 | 19 | 0.0 | 3.2 | 0.00 | 0.69 | 0.03 | 95 | 1011.4 |
| 20260905104942 | 20 | 19 | 0.0 | 1.6 | 0.00 | 0.69 | 0.03 | 95 | 1011.3 |
| 20260905104436 | 20 | 20 | 0.0 | 1.6 | 0.00 | 0.69 | 0.03 | 95 | 1011.1 |
| 20260905103930 | 20 | 19 | 0.0 | 0.0 | 0.00 | 0.69 | 0.03 | 95 | 1011.0 |
| 20260905103425 | 20 | 20 | 0.0 | 0.0 | 0.00 | 0.69 | 0.03 | 95 | 1011.0 |
| 20260905102919 | 20 | 20 | 0.0 | 0.0 | 0.00 | 0.69 | 0.03 | 95 | 1010.9 |
| 20260905102633 | 20 | 19 | 0.0 | 0.0 | 0.00 | 0.69 | 0.03 | 95 | 1010.9 |
| 20260905101906 | 20 | 20 | 0.0 | 0.0 | 0.00 | 0.69 | 0.03 | 95 | 1011.0 |
| 20260905101627 | 20 | 20 | 0.0 | 0.0 | 0.00 | 0.69 | 0.03 | 95 | 1010.9 |
| 20260905100854 | 20 | 20 | 0.0 | 0.0 | 0.00 | 0.69 | 0.03 | 95 | 1010.8 |
| 20260905100348 | 20 | 19 | 0.0 | 0.0 | 0.00 | 0.69 | 0.03 | 95 | 1010.8 |
| 20260905095842 | 20 | 20 | 0.0 | 0.0 | 0.00 | 0.69 | 0.03 | 95 | 1010.7 |
| 20260905095336 | 20 | 20 | 0.0 | 0.0 | 0.00 | 0.69 | 0.03 | 95 | 1010.7 |
| 20260905094830 | 20 | 19 | 0.0 | 1.6 | 0.00 | 0.69 | 0.03 | 95 | 1010.7 |
| 20260905094330 | 20 | 19 | 0.0 | 1.6 | 0.00 | 0.69 | 0.03 | 95 | 1010.7 |
| 20260905093827 | 20 | 19 | 0.0 | 1.6 | 0.00 | 0.69 | 0.03 | 95 | 1010.7 |
| 20260905093550 | 20 | 351 | 0.0 | 1.6 | 0.00 | 0.69 | 0.03 | 95 | 1010.7 |
| 20260905092824 | 20 | 351 | 0.0 | 1.6 | 0.00 | 0.69 | 0.03 | 95 | 1010.7 |
| 20260905092545 | 20 | 351 | 0.0 | 1.6 | 0.00 | 0.69 | 0.03 | 95 | 1010.6 |
| 20260905091821 | 20 | 350 | 0.0 | 1.6 | 0.00 | 0.69 | 0.03 | 95 | 1010.6 |
| 20260905091811 | 20 | 287 | 0.0 | 1.6 | 0.00 | 0.69 | 0.03 | 95 | 1010.6 |
| 20260905090819 | 20 | 287 | 0.0 | 1.6 | 0.00 | 0.69 | 0.03 | 95 | 1010.8 |
| 20260905090317 | 20 | 286 | 0.0 | 1.6 | 0.00 | 0.69 | 0.03 | 95 | 1010.7 |
| 20260905085817 | 20 | 286 | 0.0 | 0.0 | 0.00 | 0.69 | 0.03 | 95 | 1010.7 |
| 20260905085318 | 20 | 286 | 0.0 | 0.0 | 0.00 | 0.69 | 0.03 | 95 | 1010.7 |
| 20260905084815 | 20 | 286 | 0.0 | 0.0 | 0.00 | 0.69 | 0.03 | 95 | 1010.8 |
| 20260905084314 | 20 | 286 | 0.0 | 0.0 | 0.00 | 0.69 | 0.03 | 95 | 1010.8 |
| 20260905083812 | 20 | 286 | 0.0 | 0.0 | 0.00 | 0.69 | 0.03 | 95 | 1010.7 |
| 20260905083310 | 20 | 286 | 0.0 | 0.0 | 0.00 | 0.69 | 0.03 | 95 | 1010.8 |
| 20260905082809 | 21 | 286 | 0.0 | 0.0 | 0.00 | 0.69 | 0.03 | 95 | 1010.8 |
| 20260905082310 | 21 | 286 | 0.0 | 0.0 | 0.00 | 0.69 | 0.03 | 95 | 1010.8 |
| 20260905081808 | 21 | 286 | 0.0 | 0.0 | 0.00 | 0.69 | 0.03 | 95 | 1010.8 |
| 20260905081528 | 21 | 286 | 0.0 | 0.0 | 0.00 | 0.69 | 0.03 | 95 | 1010.9 |
| 20260905080805 | 21 | 286 | 0.0 | 0.0 | 0.00 | 0.69 | 0.03 | 95 | 1011.0 |
| 20260905080307 | 21 | 286 | 0.0 | 1.6 | 0.00 | 0.69 | 0.03 | 95 | 1011.0 |
| 20260905080031 | 21 | 286 | 0.0 | 1.6 | 0.00 | 0.69 | 0.03 | 95 | 1011.0 |
| 20260905075306 | 21 | 286 | 0.0 | 0.0 | 0.00 | 0.69 | 0.03 | 95 | 1011.1 |
| 20260905074805 | 21 | 286 | 0.0 | 0.0 | 0.00 | 0.69 | 0.03 | 95 | 1011.3 |
| 20260905074305 | 21 | 286 | 0.0 | 0.0 | 0.03 | 0.69 | 0.03 | 95 | 1011.3 |
| 20260905074026 | 21 | 286 | 0.0 | 0.0 | 0.03 | 0.69 | 0.03 | 95 | 1011.3 |
| 20260905073530 | 21 | 286 | 0.0 | 0.0 | 0.03 | 0.69 | 0.03 | 95 | 1011.2 |
| 20260905072800 | 21 | 286 | 0.0 | 0.0 | 0.03 | 0.69 | 0.03 | 95 | 1011.2 |
| 20260905072305 | 21 | 286 | 0.0 | 0.0 | 0.03 | 0.69 | 0.03 | 95 | 1011.3 |
| 20260905071802 | 21 | 286 | 0.0 | 0.0 | 0.03 | 0.69 | 0.03 | 95 | 1011.3 |
| 20260905071301 | 21 | 286 | 0.0 | 0.0 | 0.03 | 0.69 | 0.03 | 95 | 1011.3 |
| 20260905070802 | 21 | 286 | 0.0 | 0.0 | 0.03 | 0.69 | 0.03 | 95 | 1011.4 |
| 20260905070300 | 21 | 286 | 0.0 | 0.0 | 0.03 | 0.69 | 0.03 | 95 | 1011.4 |
| 20260905065802 | 21 | 286 | 0.0 | 0.0 | 0.03 | 0.69 | 0.03 | 95 | 1011.4 |
| 20260905065301 | 21 | 286 | 0.0 | 0.0 | 0.03 | 0.69 | 0.03 | 95 | 1011.5 |
| 20260905064802 | 21 | 286 | 0.0 | 0.0 | 0.03 | 0.69 | 0.03 | 95 | 1011.5 |
| 20260905064257 | 21 | 286 | 0.0 | 0.0 | 0.00 | 0.66 | 0.03 | 95 | 1011.6 |
| 20260905063757 | 21 | 286 | 0.0 | 0.0 | 0.00 | 0.66 | 0.00 | 95 | 1011.8 |
| 20260905063258 | 21 | 286 | 0.0 | 0.0 | 0.00 | 0.66 | 0.00 | 95 | 1011.9 |
| 20260905062755 | 21 | 286 | 0.0 | 0.0 | 0.00 | 0.66 | 0.00 | 95 | 1012.0 |
| 20260905062253 | 21 | 286 | 0.0 | 1.6 | 0.00 | 0.66 | 0.00 | 95 | 1012.0 |
| 20260905061752 | 21 | 286 | 0.0 | 1.6 | 0.00 | 0.66 | 0.00 | 95 | 1012.2 |
| 20260905061250 | 21 | 9 | 0.0 | 0.0 | 0.00 | 0.66 | 0.00 | 95 | 1012.3 |
| 20260905060748 | 21 | 9 | 0.0 | 1.6 | 0.00 | 0.69 | 0.00 | 95 | 1012.3 |
| 20260905060247 | 21 | 9 | 0.0 | 1.6 | 0.00 | 0.69 | 0.00 | 95 | 1012.2 |
| 20260905055746 | 21 | 9 | 0.0 | 1.6 | 0.00 | 0.69 | 0.00 | 95 | 1012.3 |
| 20260905055247 | 21 | 9 | 0.0 | 1.6 | 0.00 | 0.69 | 0.00 | 95 | 1012.2 |
| 20260905054746 | 21 | 9 | 0.0 | 0.0 | 0.00 | 0.69 | 0.00 | 95 | 1012.3 |
| 20260905054245 | 21 | 9 | 0.0 | 0.0 | 0.00 | 0.69 | 0.00 | 95 | 1012.5 |
| 20260905053745 | 21 | 9 | 0.0 | 0.0 | 0.00 | 0.69 | 0.00 | 95 | 1012.5 |
| 20260905053507 | 21 | 9 | 0.0 | 0.0 | 0.00 | 0.69 | 0.00 | 95 | 1012.5 |
| 20260905052745 | 21 | 9 | 0.0 | 0.0 | 0.00 | 0.71 | 0.00 | 95 | 1012.5 |
| 20260905052239 | 21 | 9 | 0.0 | 1.6 | 0.00 | 0.74 | 0.00 | 95 | 1012.5 |
| 20260905051733 | 21 | 9 | 0.0 | 1.6 | 0.00 | 0.76 | 0.00 | 94 | 1012.5 |
| 20260905051227 | 21 | 9 | 0.0 | 1.6 | 0.00 | 0.76 | 0.00 | 94 | 1012.4 |
| 20260905050721 | 21 | 10 | 0.0 | 0.0 | 0.00 | 0.81 | 0.00 | 94 | 1012.6 |
| 20260905050215 | 21 | 10 | 0.0 | 0.0 | 0.00 | 0.86 | 0.00 | 94 | 1012.7 |
| 20260905045709 | 21 | 10 | 0.0 | 0.0 | 0.00 | 0.89 | 0.00 | 94 | 1012.7 |
| 20260905045203 | 21 | 10 | 0.0 | 0.0 | 0.00 | 0.94 | 0.00 | 94 | 1012.8 |
| 20260905044658 | 21 | 10 | 0.0 | 0.0 | 0.00 | 1.02 | 0.00 | 94 | 1012.8 |
| 20260905044150 | 21 | 10 | 0.0 | 1.6 | 0.00 | 1.09 | 0.00 | 94 | 1012.8 |
| 20260905043645 | 21 | 10 | 0.0 | 1.6 | 0.00 | 1.17 | 0.00 | 94 | 1013.0 |
| 20260905043402 | 21 | 10 | 0.0 | 1.6 | 0.00 | 1.27 | 0.00 | 94 | 1013.0 |
| 20260905042633 | 21 | 43 | 0.0 | 1.6 | 0.00 | 1.35 | 0.00 | 94 | 1012.9 |
| 20260905042127 | 21 | 5 | 0.0 | 3.2 | 0.00 | 1.42 | 0.00 | 94 | 1013.0 |
| 20260905041621 | 21 | 329 | 0.0 | 3.2 | 0.00 | 1.45 | 0.00 | 94 | 1013.1 |
| 20260905041116 | 22 | 196 | 0.0 | 1.6 | 0.00 | 1.45 | 0.00 | 94 | 1013.1 |
| 20260905040609 | 22 | 196 | 0.0 | 0.0 | 0.00 | 1.45 | 0.00 | 94 | 1013.1 |
| 20260905040329 | 22 | 196 | 0.0 | 0.0 | 0.00 | 1.45 | 0.00 | 94 | 1013.1 |
| 20260905035828 | 22 | 196 | 0.0 | 1.6 | 0.00 | 1.45 | 1.45 | 94 | 1013.2 |
| 20260905035058 | 22 | 196 | 0.0 | 1.6 | 0.00 | 1.45 | 1.45 | 94 | 1013.2 |
| 20260905034554 | 22 | 196 | 0.0 | 1.6 | 0.00 | 1.45 | 1.45 | 94 | 1013.2 |
| 20260905034316 | 22 | 196 | 0.0 | 1.6 | 0.00 | 1.45 | 1.45 | 94 | 1013.1 |
| 20260905033553 | 22 | 196 | 0.0 | 0.0 | 0.00 | 1.45 | 1.45 | 94 | 1013.2 |
| 20260905033049 | 22 | 196 | 0.0 | 0.0 | 0.00 | 1.45 | 1.45 | 94 | 1013.2 |
| 20260905032546 | 22 | 196 | 0.0 | 1.6 | 0.00 | 1.45 | 1.45 | 94 | 1013.1 |
| 20260905032045 | 22 | 196 | 0.0 | 1.6 | 0.00 | 1.45 | 1.45 | 94 | 1013.2 |
| 20260905031544 | 22 | 196 | 0.0 | 1.6 | 0.00 | 1.45 | 1.45 | 94 | 1013.2 |
| 20260905031310 | 22 | 196 | 0.0 | 1.6 | 0.00 | 1.45 | 1.45 | 94 | 1013.2 |
| 20260905030543 | 22 | 196 | 0.0 | 1.6 | 0.00 | 1.45 | 1.45 | 94 | 1013.4 |
| 20260905030044 | 22 | 148 | 0.0 | 0.0 | 0.00 | 1.45 | 1.45 | 94 | 1013.2 |
| 20260905025544 | 22 | 148 | 0.0 | 0.0 | 0.00 | 1.47 | 1.45 | 94 | 1013.0 |
| 20260905025041 | 22 | 148 | 0.0 | 1.6 | 0.00 | 1.55 | 1.45 | 94 | 1013.1 |
| 20260905024539 | 22 | 148 | 0.0 | 1.6 | 0.00 | 1.60 | 1.45 | 94 | 1013.4 |
| 20260905024259 | 22 | 148 | 0.0 | 1.6 | 0.00 | 1.60 | 1.45 | 94 | 1013.2 |
| 20260905023537 | 22 | 153 | 0.0 | 1.6 | 0.00 | 1.60 | 1.45 | 94 | 1013.4 |
| 20260905023034 | 22 | 153 | 0.0 | 1.6 | 0.00 | 1.60 | 1.45 | 94 | 1013.2 |
| 20260905022532 | 22 | 136 | 0.0 | 0.0 | 0.00 | 1.60 | 1.45 | 94 | 1013.1 |
| 20260905022306 | 22 | 136 | 0.0 | 1.6 | 0.00 | 1.60 | 1.45 | 94 | 1013.2 |
| 20260905021527 | 22 | 136 | 0.0 | 1.6 | 0.00 | 1.60 | 1.45 | 94 | 1013.1 |
| 20260905021027 | 22 | 106 | 0.0 | 1.6 | 0.00 | 1.60 | 1.45 | 94 | 1013.1 |
| 20260905020520 | 22 | 106 | 0.0 | 0.0 | 0.00 | 1.60 | 1.45 | 94 | 1013.1 |
| 20260905020015 | 22 | 106 | 0.0 | 0.0 | 0.00 | 1.60 | 1.45 | 94 | 1013.0 |
| 20260905015509 | 22 | 106 | 0.0 | 0.0 | 0.00 | 1.60 | 1.45 | 94 | 1013.0 |
| 20260905015235 | 22 | 106 | 0.0 | 0.0 | 0.00 | 1.60 | 1.45 | 94 | 1012.9 |
| 20260905014728 | 22 | 106 | 0.0 | 0.0 | 0.00 | 1.60 | 1.45 | 94 | 1012.9 |
| 20260905014213 | 22 | 106 | 0.0 | 0.0 | 0.00 | 1.60 | 1.45 | 94 | 1012.9 |
| 20260905013445 | 22 | 106 | 0.0 | 0.0 | 0.00 | 1.60 | 1.45 | 94 | 1012.8 |
| 20260905013203 | 22 | 106 | 0.0 | 0.0 | 0.00 | 1.60 | 1.45 | 93 | 1012.7 |
| 20260905012434 | 22 | 106 | 0.0 | 1.6 | 0.00 | 1.60 | 1.45 | 93 | 1012.5 |
| 20260905011927 | 23 | 106 | 0.0 | 1.6 | 0.00 | 1.60 | 1.45 | 93 | 1012.3 |
| 20260905011421 | 23 | 106 | 0.0 | 0.0 | 0.00 | 1.60 | 1.45 | 94 | 1012.4 |
| 20260905011407 | 23 | 106 | 0.0 | 0.0 | 0.00 | 1.60 | 1.45 | 94 | 1012.3 |
| 20260905010409 | 23 | 106 | 0.0 | 0.0 | 0.00 | 1.60 | 1.45 | 94 | 1012.2 |
| 20260905005904 | 23 | 106 | 0.0 | 1.6 | 0.00 | 1.60 | 1.45 | 93 | 1012.3 |